RH
25 24 25 25 25 26 25 25 24 21 18 14 11 9 8 8 8 10 11 13 15 12 10 9 7 7 7 7 7 6 6 5 4 7 8 4 5 8 8 7 4 2 4 7 17 35 39 41 51 48 43 41 42 39 33 35 33 36 55 73 73 64 71 78 71 74 75 69 71 75 72 64 61 59 49 45 43 40 40 36 34 30 30 36 39 45 46 48
23 23 23 24 25 25 26 26 27 27 25 21 16 12 9 7 7 8 9 11 12 14 14 10 8 7 7 7 6 6 5 4 4 5 7 5 6 6 2 3 2 2 4 7 22 39 41 37 38 36 36 38 37 34 31 33 34 40 53 61 65 64 66 71 69 76 82 73 70 73 73 64 56 53 48 45 43 40 39 33 31 31 34 38 40 44 46 49
22 22 22 23 24 24 25 25 27 28 27 26 21 17 13 9 8 7 8 9 9 12 14 12 10 7 7 7 6 7 4 6 14 14 14 12 7 4 2 2 2 3 3 10 27 39 39 33 28 28 32 35 34 31 30 30 36 46 53 56 60 61 63 71 75 82 84 74 70 71 72 64 49 47 45 43 43 39 36 31 31 34 37 38 40 44 45 48
22 22 21 22 23 23 24 24 26 28 28 28 25 21 17 13 9 7 8 8 8 10 12 14 12 8 7 6 6 7 5 14 27 30 27 20 8 3 3 1 2 3 2 15 32 37 35 30 25 27 29 31 31 30 29 29 38 47 51 57 61 59 63 75 79 81 82 76 69 64 63 56 44 43 42 40 43 40 34 32 33 36 37 38 41 44 45 48
22 23 23 22 23 23 22 23 25 27 28 28 28 26 22 18 13 8 7 8 9 8 11 14 12 10 6 6 8 5 10 21 29 36 32 22 11 3 2 1 3 2 5 24 37 35 31 28 25 26 29 29 29 29 27 26 33 43 50 57 60 59 67 76 76 79 82 76 68 61 55 47 42 42 38 38 42 40 34 33 36 37 37 39 41 43 45 48
22 23 24 24 24 24 23 23 25 26 27 29 29 28 25 21 17 11 7 8 10 9 10 13 12 11 6 7 7 5 18 22 22 33 28 21 16 4 1 2 2 2 10 32 40 33 28 26 24 24 26 28 28 28 26 26 30 41 55 63 61 59 68 72 72 77 78 76 72 61 50 43 42 41 37 36 38 38 36 34 36 37 37 40 40 42 45 46
22 22 24 25 25 25 25 24 25 26 27 29 29 28 27 24 20 15 9 8 10 9 9 13 13 10 6 6 6 13 27 22 24 37 27 18 15 4 1 2 2 2 14 36 39 31 26 23 23 22 22 25 27 25 25 29 29 35 52 67 67 61 66 70 74 78 77 79 74 56 45 44 43 41 39 36 35 37 37 36 36 37 38 39 40 42 43 43
19 21 22 25 27 26 26 25 26 27 28 29 29 28 28 24 21 17 11 8 10 10 10 13 11 9 7 6 14 28 31 25 36 41 25 17 11 2 2 2 2 3 15 35 36 29 23 21 21 19 20 22 23 24 26 29 29 35 49 64 73 71 70 73 76 81 82 80 73 56 45 47 47 43 41 36 34 36 37 37 36 37 38 38 40 41 41 41
14 19 21 23 27 28 27 26 26 27 28 29 29 29 28 24 20 18 13 8 9 10 11 12 9 9 6 4 18 30 24 25 39 36 20 15 7 1 2 2 1 3 18 34 34 27 20 18 19 17 19 19 21 23 26 30 33 40 46 57 73 78 75 76 78 81 84 79 72 63 53 55 52 43 41 37 35 37 37 37 36 36 37 37 38 38 39 38
12 14 19 22 25 29 28 27 27 28 29 28 28 27 25 21 18 17 13 9 9 9 12 12 9 8 7 15 28 27 19 23 33 36 25 14 8 2 1 6 4 7 26 35 31 26 19 15 15 15 18 19 22 23 24 30 33 39 50 60 75 83 78 79 85 85 84 77 71 70 66 61 49 43 44 38 35 37 36 36 36 36 35 35 36 37 37 36
13 11 16 20 23 28 29 28 28 28 29 28 25 21 19 18 17 16 13 10 9 9 12 11 9 9 7 27 40 25 17 18 22 33 30 16 10 2 1 13 13 14 30 32 26 23 18 14 13 13 17 20 24 24 25 29 31 40 53 61 74 84 83 80 81 82 81 75 71 70 66 57 46 44 43 37 35 37 36 36 35 35 34 34 35 36 37 36
14 10 13 17 22 26 28 28 28 28 29 25 19 16 17 17 15 14 11 11 10 11 12 9 10 8 7 29 38 22 16 15 19 31 29 19 13 5 5 18 18 16 27 27 22 20 17 14 13 12 15 20 24 24 26 26 31 44 52 61 74 78 80 81 77 76 79 76 74 69 61 56 54 49 40 35 36 35 35 35 34 34 33 34 35 36 37 36
15 10 11 15 20 25 28 28 28 28 27 20 15 15 16 14 13 12 10 11 11 11 10 10 10 5 18 36 27 17 14 12 21 30 25 19 16 12 12 20 20 16 22 23 18 17 16 15 12 11 12 17 21 25 27 24 29 44 53 62 74 79 81 82 76 73 77 80 78 74 70 67 60 47 39 37 35 33 34 33 33 33 32 34 35 36 37 37
15 11 10 13 19 25 27 28 27 28 24 16 13 15 15 15 14 11 12 12 11 13 10 10 9 7 32 40 18 14 13 11 22 26 22 19 16 14 13 19 21 17 19 19 16 15 15 13 12 11 13 16 20 24 25 24 30 43 59 63 64 78 89 80 73 71 75 83 82 77 75 69 56 44 40 38 34 33 33 33 33 33 33 35 35 36 37 37
14 11 9 11 18 24 27 27 27 27 22 16 18 22 23 24 20 14 16 17 15 17 11 12 16 18 38 36 17 16 9 11 23 23 23 21 18 16 14 18 19 17 18 17 16 15 14 13 11 12 16 21 23 24 23 24 30 38 59 68 54 67 88 78 67 67 70 80 80 74 73 65 53 44 41 38 35 34 33 33 34 33 34 36 35 36 37 37
13 11 9 11 18 24 27 27 27 26 22 22 26 27 27 27 25 20 21 23 23 21 18 30 40 36 36 26 17 17 9 13 23 23 24 23 22 19 16 18 17 17 19 18 18 16 14 13 12 13 18 23 23 23 24 26 35 40 51 62 55 63 84 79 69 65 65 71 75 73 75 71 57 45 42 38 36 36 35 33 33 34 35 35 35 35 36 36
13 11 9 10 17 23 27 27 26 25 24 26 28 25 24 26 28 25 25 28 26 22 19 34 49 45 35 21 15 15 11 18 23 21 22 21 21 19 17 18 16 18 19 18 18 15 15 13 12 14 16 23 23 23 31 37 43 44 42 50 55 62 72 75 75 70 64 66 70 69 69 73 61 46 43 40 37 37 35 34 34 34 35 35 34 35 35 35
13 12 9 10 17 23 26 27 26 26 24 25 26 25 24 23 25 25 27 29 27 26 23 27 40 39 28 19 15 11 12 22 23 19 17 15 15 16 16 16 15 17 18 17 16 14 15 12 11 13 15 22 24 24 33 39 40 45 48 47 54 64 68 75 76 69 68 67 66 65 65 72 67 52 46 40 39 38 34 34 34 33 35 34 33 33 34 35
13 13 10 10 16 22 26 26 25 27 25 25 25 23 25 29 32 27 25 34 36 35 33 32 36 28 15 14 13 12 18 24 22 17 16 13 14 15 15 15 14 14 14 14 14 12 12 11 11 14 17 20 23 24 26 25 28 45 52 43 54 72 70 70 68 61 66 68 64 63 65 73 76 69 59 48 42 38 35 35 34 34 34 34 33 33 33 34
14 14 11 10 15 22 26 24 26 28 25 26 24 26 39 43 41 35 33 44 45 32 25 24 25 18 10 12 13 17 22 21 19 18 17 15 14 14 14 14 13 12 11 10 10 10 9 11 12 13 16 17 19 20 20 18 19 31 39 34 52 74 67 64 68 61 61 66 64 59 61 72 79 80 74 64 57 48 40 35 35 36 34 33 33 33 33 34
14 16 12 10 15 22 26 24 25 28 26 27 24 32 46 34 22 26 28 32 35 28 21 16 16 14 11 12 15 19 19 17 19 18 18 17 13 11 12 11 11 11 10 8 8 8 8 11 12 13 13 14 16 16 17 19 17 21 28 33 50 63 62 68 73 67 62 67 67 59 62 68 72 81 84 79 72 61 50 40 35 35 34 33 33 33 33 34
15 17 13 11 14 21 25 23 24 26 26 26 23 31 40 26 16 20 19 17 21 24 20 13 12 13 12 15 15 15 15 16 19 17 18 18 12 10 9 8 9 9 8 7 8 8 10 11 11 13 12 11 13 14 17 17 15 19 23 34 54 59 62 73 76 74 70 72 72 67 70 71 68 78 88 86 75 67 64 57 46 38 34 33 33 34 34 34
16 18 14 11 15 21 24 23 23 24 26 26 23 29 33 27 21 21 20 19 18 19 16 11 11 11 11 15 15 13 14 16 18 18 18 17 14 10 9 8 7 7 6 7 8 9 10 10 9 11 12 11 13 13 16 15 12 18 18 29 55 64 65 72 75 78 76 72 74 74 80 84 78 78 85 88 79 73 71 65 58 47 37 34 34 35 34 34
17 18 15 12 15 22 24 23 22 21 23 24 23 28 30 26 23 22 22 20 18 17 14 10 9 9 9 11 13 12 13 15 17 18 17 17 15 12 10 8 6 6 6 6 8 8 9 8 7 9 10 12 15 15 16 14 12 17 16 25 48 58 58 61 66 74 79 79 78 80 90 95 88 82 85 89 85 83 76 64 61 53 40 36 36 36 35 35
18 18 14 12 16 22 22 22 20 20 25 29 27 29 29 25 23 25 22 22 22 15 9 8 7 8 8 10 12 11 11 14 15 17 18 16 15 13 11 9 6 6 5 5 7 7 8 7 6 8 10 12 15 15 14 12 15 17 14 23 43 50 50 56 62 72 86 87 79 81 94 98 88 81 84 92 91 89 83 67 59 54 42 37 38 37 36 37
19 18 14 14 17 22 23 28 31 27 28 32 28 26 25 23 25 25 23 28 26 12 7 7 6 9 9 10 12 10 12 14 13 17 18 15 15 13 11 10 8 7 5 4 6 7 7 7 7 8 11 15 14 14 14 12 16 18 13 21 37 41 47 55 58 68 82 81 73 77 87 93 93 83 79 90 93 88 84 69 57 56 49 39 38 39 37 38
19 17 15 14 18 21 24 34 41 32 27 27 24 22 21 22 26 25 29 37 26 10 8 8 6 11 10 9 11 12 17 17 15 17 17 15 15 13 11 10 9 8 6 4 6 7 7 8 10 9 12 16 15 15 15 13 16 16 13 21 28 29 41 53 57 64 70 72 74 73 73 84 90 83 78 86 91 89 87 72 60 62 57 43 38 41 39 38
19 16 15 15 18 21 21 28 32 27 27 25 22 23 20 23 26 24 34 41 21 7 9 9 9 12 10 10 10 12 18 18 16 18 15 14 14 13 11 10 9 8 6 6 6 6 7 8 9 10 13 16 15 15 14 13 15 13 12 17 19 19 26 41 53 57 58 68 78 71 69 78 81 78 83 89 90 91 88 73 62 64 61 48 39 41 41 38
18 15 16 15 18 21 21 20 19 19 25 26 23 24 22 24 24 23 38 39 16 7 10 9 10 11 10 11 10 11 16 16 16 16 13 12 13 12 10 9 8 8 6 6 6 5 6 7 8 11 15 16 15 14 12 11 11 11 12 13 14 16 17 27 41 45 46 58 66 65 66 73 80 86 90 93 92 90 88 73 62 63 62 52 42 40 41 39
17 15 16 16 18 21 20 21 21 18 21 24 24 25 25 25 24 35 49 35 11 7 9 9 10 8 9 10 11 12 14 14 15 14 12 11 11 11 10 10 9 8 7 6 6 6 5 7 9 11 13 15 15 13 11 10 9 10 12 12 14 15 14 19 25 30 42 50 47 50 58 63 78 89 85 85 83 80 85 76 63 64 62 54 45 41 41 40
16 15 16 17 19 20 23 30 30 26 26 27 26 26 26 25 30 44 44 19 7 10 8 9 10 7 9 11 12 13 13 13 14 14 13 10 10 11 11 12 12 10 9 7 8 7 5 8 11 11 11 12 14 12 10 10 9 9 10 14 18 18 19 22 25 30 44 52 43 36 43 54 70 81 74 69 66 66 78 77 65 62 60 57 49 41 40 40
15 16 17 19 19 18 23 31 31 29 30 29 28 26 25 31 40 41 26 9 11 14 8 10 10 7 9 9 12 13 12 14 15 14 13 10 10 11 11 13 13 13 13 11 10 7 6 10 10 10 11 11 13 12 11 11 10 10 10 15 22 26 30 31 35 40 41 54 60 48 47 58 67 71 65 60 59 60 69 72 64 59 59 62 58 47 41 40
14 17 18 19 18 18 22 26 28 30 30 30 29 24 27 42 40 24 12 10 13 10 7 9 9 8 9 9 12 11 10 15 15 14 14 11 11 10 10 11 10 11 13 14 13 9 9 12 10 11 11 10 12 12 14 13 10 11 12 17 24 32 44 45 41 45 44 54 65 57 56 67 69 64 54 53 59 59 65 71 67 64 63 64 61 52 44 40
16 17 19 20 21 21 21 22 23 26 30 31 27 26 37 46 30 11 9 10 9 8 7 7 8 10 11 11 12 10 9 14 13 14 15 12 12 11 9 10 9 9 12 14 13 10 13 14 11 12 12 10 11 10 13 12 9 11 10 14 22 27 43 51 45 47 55 59 61 58 61 65 67 67 55 50 57 61 67 72 71 69 65 59 54 51 46 41
16 17 20 21 20 20 19 19 20 23 30 31 28 36 46 37 17 10 12 8 6 8 6 6 8 11 12 12 12 10 10 13 13 13 15 13 13 12 9 10 10 10 12 15 14 9 11 13 10 11 11 9 11 10 11 12 10 10 9 12 19 21 30 43 41 41 51 59 59 60 65 61 60 65 59 53 57 61 66 72 76 75 68 61 58 54 49 44
18 20 21 20 20 25 24 19 19 26 31 29 31 42 43 26 12 10 10 7 8 7 6 7 9 11 15 14 13 12 11 13 13 13 15 14 12 11 10 9 9 10 12 14 14 10 10 10 8 10 10 7 9 9 9 12 11 9 10 13 14 14 21 34 42 41 45 56 57 55 63 67 64 66 63 57 60 65 70 77 82 80 74 70 65 58 51 46
29 34 29 26 28 32 30 24 25 31 31 28 30 34 28 17 10 8 7 7 7 6 6 9 10 12 15 15 15 14 11 11 13 14 15 15 14 12 9 9 8 9 10 10 11 11 11 11 8 10 11 7 8 8 7 10 11 10 11 11 9 12 18 28 44 49 46 52 58 59 64 68 68 71 71 64 65 72 77 83 85 82 81 77 70 63 54 48
32 39 32 27 28 30 30 30 31 31 28 26 27 27 20 12 8 7 7 8 6 6 7 9 10 9 10 13 13 12 11 12 13 15 16 16 16 13 10 9 8 7 7 9 11 12 12 13 11 8 9 8 6 8 9 8 8 9 9 9 10 16 19 25 39 48 49 54 62 67 67 64 65 73 77 73 69 70 74 83 88 85 83 79 71 63 54 49
22 31 27 21 22 25 27 29 31 27 26 30 32 29 18 9 8 8 7 8 7 7 9 9 9 8 8 10 10 11 11 11 11 13 15 17 18 15 10 10 10 8 7 8 10 12 12 15 14 8 7 8 8 8 10 9 7 7 8 8 10 15 18 25 31 35 44 54 57 64 67 61 61 67 70 69 65 63 68 78 86 85 80 75 67 60 54 52
18 23 24 20 20 23 23 25 27 23 24 33 36 29 16 7 8 8 6 8 7 7 10 10 9 9 8 8 9 11 10 9 10 11 13 15 16 14 11 10 11 9 8 8 9 10 12 15 15 10 7 8 9 9 8 8 7 7 10 11 11 13 15 22 27 26 35 44 45 58 68 59 56 63 64 62 61 58 58 68 82 87 80 70 64 61 59 55
28 22 20 21 23 23 21 21 23 19 19 26 25 16 11 8 8 7 7 7 6 7 9 8 9 10 9 9 9 9 10 10 9 10 12 13 13 14 11 10 11 10 10 10 9 11 13 14 14 12 10 10 9 8 7 7 6 6 9 10 11 14 15 23 29 23 24 30 31 48 67 59 53 62 64 61 59 55 55 65 80 87 82 71 65 66 64 58
33 27 20 22 23 22 20 17 16 15 18 23 18 11 9 9 7 6 6 6 6 6 7 7 9 9 10 10 9 9 10 10 9 11 13 12 11 12 10 9 9 9 10 10 9 11 11 12 15 14 11 10 7 6 6 6 5 5 6 7 7 10 13 22 29 24 23 25 24 37 57 57 51 58 64 62 60 64 73 77 79 84 83 74 67 66 61 55
26 23 21 22 22 19 17 16 16 17 15 14 13 9 7 8 7 6 6 6 6 7 7 8 9 9 11 10 9 10 10 10 10 11 13 12 10 10 9 9 9 8 9 10 10 10 10 12 17 16 13 11 8 6 5 5 5 5 6 6 5 6 9 15 20 22 24 26 29 43 57 61 59 62 67 68 68 74 82 79 74 78 81 75 69 62 53 53
25 20 19 21 21 18 15 16 24 30 22 11 9 10 8 7 7 8 8 8 8 8 8 9 9 9 10 9 10 11 10 11 12 11 12 13 11 10 10 9 10 8 9 13 14 13 13 14 16 17 18 17 13 8 6 6 5 6 6 5 6 6 6 10 14 19 25 23 28 46 61 68 72 70 66 68 70 71 75 77 77 78 78 75 75 69 61 64
32 25 20 20 19 17 15 14 21 29 23 13 11 11 9 8 9 9 9 8 8 8 8 9 9 9 9 10 11 11 10 11 12 11 12 13 11 10 10 9 9 9 11 17 16 13 15 16 15 18 20 22 22 17 12 10 6 6 7 5 7 6 5 9 12 18 26 22 22 39 58 74 83 76 66 64 66 70 75 81 82 80 78 79 82 81 77 80
34 24 17 17 16 14 14 13 13 17 17 15 15 13 10 10 10 9 8 8 8 9 9 9 9 9 10 11 11 12 11 10 11 11 12 13 11 10 9 9 9 9 13 17 14 11 16 18 16 18 18 20 24 21 15 11 7 6 6 5 6 7 7 9 9 14 20 19 28 45 57 72 82 76 70 67 68 75 78 77 78 78 81 86 90 92 89 91
31 22 16 16 16 13 12 13 12 11 12 14 15 14 12 11 10 9 9 9 9 9 9 10 9 9 11 12 12 13 12 11 11 11 11 11 11 9 9 9 8 10 12 13 11 12 17 19 17 18 18 16 17 17 14 11 9 8 7 6 7 7 7 8 8 13 13 16 37 55 56 63 67 64 69 72 73 78 77 75 78 79 82 88 94 99 97 98
24 20 17 17 19 17 14 13 13 11 11 12 13 13 12 12 12 12 11 10 10 9 11 13 12 10 10 11 12 14 14 14 14 13 13 12 11 10 9 8 9 10 10 10 11 13 17 20 18 16 17 15 14 14 14 12 10 10 9 8 7 7 8 8 8 10 9 18 41 53 51 55 56 53 58 65 70 74 74 76 81 82 83 87 92 98 99 98
24 21 22 21 20 18 17 15 14 12 13 13 14 13 12 13 13 12 11 11 12 10 11 15 14 11 11 11 13 17 18 18 18 17 16 15 13 12 12 10 9 9 9 8 10 13 17 19 17 16 17 16 13 12 12 11 11 12 11 8 6 6 6 8 8 6 8 22 40 44 44 47 47 46 50 55 62 67 67 71 77 81 86 88 88 94 98 97
35 34 32 30 23 18 20 18 12 13 14 14 16 15 13 13 14 13 11 11 14 14 12 14 14 12 12 12 14 18 18 18 19 18 16 16 15 15 15 13 10 9 9 9 11 14 17 17 17 17 19 17 14 11 10 11 12 11 9 8 9 8 5 5 7 7 9 23 36 42 49 51 44 44 52 58 62 63 61 63 67 72 78 80 83 89 94 96
41 42 36 33 28 22 21 17 12 14 15 14 15 15 13 14 13 12 12 10 11 14 13 13 14 13 14 15 14 15 15 14 16 16 14 14 15 14 14 13 11 12 12 11 13 15 16 17 17 18 20 20 16 12 10 10 10 9 12 18 20 16 14 17 23 24 23 28 36 44 54 54 46 46 56 60 59 60 62 65 64 65 69 73 78 84 89 96
50 49 42 34 29 24 20 17 13 14 17 15 14 15 14 14 12 11 15 14 10 11 11 11 13 14 17 20 18 14 13 12 12 12 12 12 12 11 12 12 11 12 12 12 13 14 15 18 19 20 23 21 15 14 14 11 12 17 25 31 28 25 28 33 35 38 35 33 39 46 49 50 49 50 55 57 56 57 62 66 67 69 72 75 79 83 90 96
Wind_Speed
11 11 11 11 11 10 11 11 12 12 12 12 12 11 11 10 9 9 8 8 8 8 8 8 8 8 8 9 10 10 11 11 10 11 15 12 10 13 13 12 11 10 9 7 6 9 11 11 12 12 11 12 12 12 12 11 10 6 2 2 4 4 1 5 7 5 3 8 10 8 10 9 10 9 9 11 11 12 13 14 14 19 23 24 28 30 28 26
12 12 11 11 11 11 11 11 12 12 13 13 12 12 12 11 10 9 9 8 8 7 7 7 7 8 8 9 10 11 11 11 12 14 13 8 10 14 13 13 11 10 9 8 9 11 12 11 10 11 11 12 12 11 10 6 4 2 1 4 4 4 1 5 8 7 4 8 12 8 9 8 10 13 10 11 12 12 12 14 19 24 27 28 30 28 27 26
12 11 11 11 11 11 11 11 11 12 13 14 14 13 12 12 10 9 8 8 8 7 7 7 7 8 8 9 10 11 11 12 14 14 9 7 12 13 11 13 12 10 9 8 10 11 11 10 9 10 12 12 11 10 7 5 2 1 1 4 4 5 4 5 8 12 7 11 15 10 11 10 11 14 11 11 12 12 12 16 21 27 29 30 29 27 27 25
11 11 11 11 10 10 11 11 11 12 13 14 14 14 13 12 11 10 8 8 8 7 7 7 7 7 7 9 9 10 12 13 9 5 4 6 9 11 12 12 11 11 8 8 10 11 10 10 9 11 12 11 10 9 8 4 3 2 2 3 4 5 4 1 8 17 13 12 15 12 12 12 12 12 12 13 11 9 12 19 23 27 30 30 30 28 26 24
12 12 11 11 10 11 11 11 11 12 14 14 14 14 13 12 11 10 9 8 8 7 6 6 7 6 6 7 8 9 10 6 1 2 5 5 5 10 12 11 11 11 8 10 11 11 11 11 10 11 11 10 9 8 8 7 4 3 2 5 3 4 5 6 11 17 14 9 9 12 10 11 12 11 13 13 9 8 13 20 23 27 30 30 30 27 25 24
12 12 12 11 10 11 11 11 11 12 14 14 14 14 13 12 11 10 9 8 8 7 6 6 6 6 6 6 8 8 5 3 2 3 7 7 8 9 11 11 11 11 11 11 12 12 12 12 11 11 11 9 8 7 7 8 4 2 4 6 4 6 9 9 11 12 13 9 6 8 10 12 12 10 12 11 10 12 15 20 24 26 28 28 28 26 25 24
12 12 13 12 11 11 11 11 12 13 14 14 14 14 14 12 11 10 8 8 7 7 5 5 6 5 5 5 7 6 9 11 4 5 8 10 7 10 12 12 13 14 14 13 14 13 12 13 13 12 11 8 7 8 6 7 6 2 5 9 7 8 12 9 9 8 8 6 6 8 12 12 10 10 10 10 13 17 17 21 24 25 26 26 26 25 24 23
11 12 13 13 12 12 11 12 12 13 14 14 14 14 14 13 11 9 8 7 7 7 5 4 5 5 5 5 6 8 13 10 2 5 10 11 4 11 12 13 15 16 16 15 15 13 12 13 14 12 11 8 6 6 3 5 6 1 6 12 10 9 12 9 10 12 6 4 2 4 12 11 9 10 10 11 15 18 20 23 25 25 25 24 24 24 23 22
11 11 12 13 13 12 12 12 12 14 14 14 15 15 15 13 11 9 7 6 6 6 4 4 4 4 5 4 6 8 7 1 3 7 11 10 5 11 13 15 17 17 16 15 14 13 12 12 14 13 12 10 6 5 4 5 3 4 6 11 13 11 11 11 14 13 6 6 3 0 7 10 11 11 10 12 17 20 22 23 25 25 24 23 23 23 22 21
14 11 11 12 12 12 13 12 13 14 15 15 15 15 14 12 10 8 6 5 5 5 4 4 4 4 5 5 7 6 2 1 4 6 8 9 6 11 13 14 15 16 15 14 14 14 13 12 12 13 14 13 9 5 7 5 1 6 8 12 16 12 9 13 14 11 9 8 4 1 3 6 10 9 7 13 18 21 23 24 24 23 23 23 22 22 20 20
15 13 11 12 12 12 13 13 14 15 16 16 16 15 12 11 8 6 5 4 4 4 4 4 4 5 5 5 10 7 0 2 3 2 5 6 7 11 12 13 14 15 14 13 14 13 13 13 10 11 10 8 8 5 6 4 6 10 11 13 17 13 10 13 12 10 8 6 5 4 6 7 7 7 8 15 19 21 23 23 23 22 22 22 22 21 18 19
16 14 12 11 12 13 12 13 14 15 16 16 14 12 9 8 6 5 5 4 3 2 3 4 3 5 5 8 15 10 3 4 3 2 5 5 8 10 11 13 13 15 15 13 13 12 13 12 10 12 9 4 6 3 5 9 10 14 11 10 12 11 9 9 8 8 5 4 6 4 8 6 2 7 13 16 19 21 23 22 23 21 21 21 21 19 17 18
15 14 12 11 12 12 12 13 13 14 15 14 11 8 6 6 5 5 4 3 2 2 3 2 3 5 6 10 11 7 4 4 4 4 6 7 9 9 11 12 13 14 14 13 12 11 12 12 11 14 12 9 7 1 2 8 10 12 9 6 7 7 5 3 4 8 5 4 6 3 4 4 3 11 14 15 19 21 22 22 22 21 20 21 20 19 17 18
16 15 12 10 10 12 12 12 13 14 13 11 8 6 6 6 5 5 4 3 2 1 2 1 3 4 7 10 6 4 7 5 6 7 8 9 10 10 12 12 12 14 14 14 12 10 11 12 12 14 14 13 11 5 4 6 7 9 6 4 5 5 4 6 6 8 5 3 6 4 2 4 8 13 13 15 19 20 21 21 20 21 21 20 19 19 18 18
16 15 12 9 9 10 11 11 12 12 11 8 6 6 6 6 5 4 3 3 2 1 1 1 3 4 8 12 7 5 7 7 8 10 10 10 11 11 12 13 12 13 13 13 11 9 9 10 12 13 11 12 13 9 8 7 5 6 5 4 5 5 6 8 9 8 5 4 6 3 3 5 9 13 14 16 18 18 19 20 20 20 20 20 19 19 18 18
17 15 12 9 8 9 10 10 10 10 8 6 6 6 5 5 4 2 1 2 1 2 2 0 5 7 8 7 4 2 4 9 10 10 11 11 11 11 12 12 12 13 13 12 10 9 9 10 12 14 13 11 10 8 7 6 5 6 6 5 5 6 7 8 8 9 7 7 5 3 3 5 7 13 15 15 18 18 18 19 20 20 20 20 19 19 18 18
17 15 12 9 8 8 9 9 9 8 7 5 5 6 6 5 3 2 1 2 3 5 5 3 4 9 10 7 6 7 7 10 10 10 10 10 11 10 11 12 13 13 12 11 10 9 10 11 11 11 12 9 7 8 6 7 6 6 6 5 6 7 7 7 7 10 10 9 7 4 4 4 5 12 15 14 17 18 18 18 19 19 20 20 19 19 19 18
17 15 12 9 7 8 8 8 8 6 6 5 7 8 9 9 6 4 5 5 5 6 8 7 5 8 10 10 8 9 10 9 10 10 10 11 11 10 12 12 12 12 12 11 10 11 11 12 10 8 9 8 8 9 7 8 7 5 6 5 6 6 6 7 8 11 12 9 8 7 6 6 6 9 13 15 17 18 18 18 19 19 19 19 19 19 19 19
17 15 12 9 7 7 7 7 6 6 6 6 8 11 13 12 9 7 7 7 6 6 5 5 10 5 2 5 4 4 9 9 9 10 11 10 9 11 12 12 11 13 12 10 10 13 11 9 10 8 8 9 10 11 11 10 8 9 10 5 4 4 5 8 8 11 15 10 9 9 7 8 8 6 7 10 14 16 17 17 18 19 20 19 19 19 19 19
17 15 12 9 7 6 6 6 5 5 5 7 10 12 12 10 6 4 6 11 13 12 9 4 12 9 3 3 4 7 8 9 10 10 11 10 9 13 14 12 13 13 11 9 9 13 12 8 8 9 11 12 13 14 14 12 7 7 9 5 5 6 6 8 7 10 13 9 9 11 8 10 9 4 3 2 5 8 13 17 18 17 19 19 18 19 19 19
16 14 12 9 7 6 6 6 5 5 6 7 10 10 9 9 6 4 5 11 17 15 13 9 11 12 8 2 5 6 6 8 11 11 10 11 12 13 14 13 12 10 11 13 10 11 12 9 9 13 14 15 14 12 14 15 9 6 6 6 5 5 6 6 7 9 11 7 8 10 9 11 11 6 2 2 5 6 11 13 18 19 18 19 19 20 19 19
16 14 12 9 6 5 5 6 6 6 6 6 9 10 11 11 10 10 12 13 13 13 12 10 11 12 9 5 2 6 9 10 12 13 12 13 14 13 13 13 11 8 11 14 10 9 9 9 12 14 14 16 15 11 15 18 11 5 7 4 3 3 6 5 5 8 7 4 5 9 8 8 10 8 3 3 6 8 8 7 10 18 19 18 19 20 20 19
16 14 12 9 6 5 6 6 7 8 6 7 9 11 13 12 10 12 12 13 11 10 12 9 11 11 11 11 6 6 11 11 12 14 14 14 16 14 12 12 11 10 12 12 10 8 7 9 14 15 13 15 15 12 15 17 9 6 8 3 6 7 5 3 5 6 4 2 1 6 5 2 5 7 4 3 4 6 7 7 8 12 19 18 18 20 20 20
15 13 11 8 6 5 5 6 7 8 5 7 10 10 12 11 10 14 12 13 11 8 9 6 9 12 12 12 9 12 15 11 12 15 15 15 14 12 11 12 11 10 11 13 14 10 8 10 14 16 14 13 14 14 16 13 6 6 9 4 9 10 5 5 8 7 2 4 2 6 5 2 5 7 5 3 4 4 5 7 7 10 17 19 18 20 20 20
15 13 10 7 6 4 5 5 5 5 5 9 12 9 9 9 9 12 11 11 8 6 6 4 8 10 11 9 7 12 14 12 13 14 17 17 14 11 9 11 10 10 12 15 14 10 10 12 14 15 14 13 15 13 12 8 3 7 12 10 17 16 10 12 13 8 4 3 5 8 5 3 7 10 8 5 5 4 3 8 9 10 16 20 18 20 20 19
14 12 9 7 6 3 4 5 4 6 8 11 11 8 5 6 9 11 9 8 4 4 5 6 7 5 9 10 9 11 12 11 13 14 17 17 15 10 7 8 9 10 11 12 10 7 9 11 12 14 12 13 15 9 6 6 6 8 8 9 22 19 14 16 14 8 4 2 5 9 5 3 6 10 10 7 6 6 4 8 11 9 13 20 20 20 21 20
13 10 8 8 6 5 6 6 5 8 9 5 4 5 5 7 9 9 8 5 1 4 5 5 5 4 6 9 12 11 5 6 13 14 15 15 15 12 8 8 8 9 10 8 7 6 9 13 14 14 12 11 11 6 7 9 8 7 2 11 17 14 14 16 12 6 3 1 3 8 6 2 5 8 9 9 8 7 7 9 11 9 11 19 21 19 21 22
13 9 8 7 6 6 7 8 9 11 11 8 7 8 8 9 10 8 6 2 2 3 5 5 4 3 4 8 14 11 2 5 11 11 13 15 16 14 10 9 9 10 11 8 7 7 9 14 14 12 10 9 8 6 10 12 10 6 2 8 9 8 12 16 11 6 6 4 3 8 8 4 3 7 7 8 9 9 11 10 11 12 13 17 22 21 21 22
12 9 7 7 7 6 7 9 10 11 10 9 10 10 9 10 10 6 5 3 0 2 2 5 6 6 7 9 15 13 7 8 7 8 12 16 16 15 10 9 11 11 11 9 8 7 10 13 11 9 8 7 8 9 12 13 10 4 2 3 5 6 8 11 10 7 8 6 5 8 11 5 2 7 8 8 10 11 11 9 10 14 15 17 21 22 21 22
11 8 6 6 7 6 7 8 6 7 8 10 11 11 11 11 8 5 4 2 1 4 3 2 6 9 10 9 12 13 10 10 7 9 12 14 16 16 12 10 11 9 10 10 11 11 11 10 8 7 7 8 10 13 13 12 9 4 2 2 5 6 6 5 6 5 5 6 7 11 16 9 3 6 10 9 9 11 11 9 11 15 18 18 21 23 21 22
10 7 6 7 6 6 8 7 4 7 8 9 11 11 12 8 4 5 3 1 0 4 5 4 6 9 10 10 10 10 9 8 8 10 10 10 13 13 10 8 7 7 8 8 10 13 12 8 8 7 7 9 13 13 12 11 11 8 3 2 5 5 5 5 4 4 5 6 6 8 13 11 5 4 9 10 8 12 13 11 13 16 19 19 19 22 23 22
8 6 6 6 6 7 8 7 3 3 7 9 10 11 9 4 3 6 2 2 1 1 2 5 7 8 11 11 8 8 9 6 8 9 8 8 9 9 9 7 5 7 7 6 8 10 9 7 9 8 7 11 13 9 9 10 11 8 3 4 6 4 4 5 5 6 6 2 2 3 5 5 3 1 9 14 13 15 15 14 17 19 20 19 18 20 22 23
6 6 5 4 6 6 5 5 4 6 8 9 11 10 6 4 5 4 2 1 3 1 4 4 7 7 10 10 7 8 9 7 8 10 9 9 8 9 11 12 11 8 5 6 8 8 8 9 11 9 7 12 14 7 7 9 10 9 5 6 5 3 5 6 6 6 4 1 5 4 5 3 2 1 7 14 16 18 18 17 19 20 21 23 23 19 19 22
5 5 4 4 5 4 4 4 4 6 8 9 10 7 5 6 4 2 3 4 4 3 4 2 5 7 6 4 5 7 7 7 9 8 8 9 8 8 11 13 14 10 5 6 8 8 9 8 9 8 6 10 13 11 8 8 7 9 8 8 6 5 5 4 4 4 2 1 3 1 3 3 2 0 1 9 16 18 17 16 18 21 22 27 27 22 18 21
5 4 4 4 5 4 4 4 5 6 6 9 7 3 6 7 2 4 4 5 1 4 3 3 1 5 4 3 4 5 4 3 7 7 7 8 8 7 9 10 12 9 6 5 6 8 10 7 10 12 11 12 13 14 11 11 9 8 8 8 6 5 5 3 4 2 1 3 1 1 2 1 1 2 2 9 15 16 16 16 19 22 23 24 25 23 19 20
3 4 4 4 4 4 3 4 4 4 6 9 4 1 7 7 4 5 2 4 8 3 6 1 3 2 3 4 4 5 5 3 6 7 6 7 8 8 8 9 10 11 9 5 4 6 8 7 11 17 15 14 15 15 12 10 8 4 7 10 8 5 5 4 4 4 4 4 1 2 3 3 3 2 3 10 13 13 14 15 18 21 23 22 22 22 19 18
3 6 8 7 4 5 3 4 3 4 8 8 4 4 7 6 6 5 2 4 8 5 2 1 3 2 4 4 3 6 8 5 6 6 5 6 6 7 9 8 11 16 14 7 2 4 5 7 8 16 14 13 15 14 13 12 11 4 4 6 7 6 5 4 2 3 5 3 1 3 4 4 3 1 4 9 11 12 12 11 14 18 22 23 23 23 22 21
6 8 11 8 5 7 5 4 5 6 9 7 5 8 7 4 5 6 5 7 7 4 4 2 2 3 5 3 3 5 7 5 6 5 4 5 4 5 7 6 7 13 11 5 1 3 5 8 6 16 12 10 12 10 11 14 16 12 6 5 5 6 6 5 3 2 4 2 1 2 3 3 1 1 6 9 10 12 13 11 11 14 20 24 24 24 24 23
9 9 10 7 6 6 6 5 6 8 7 5 5 7 6 3 3 5 6 7 7 5 5 5 2 2 3 1 2 3 7 5 5 5 4 3 3 5 7 4 6 9 9 8 6 2 4 7 5 10 10 8 10 8 8 10 13 14 10 7 6 5 4 4 3 3 3 2 2 2 2 2 1 3 7 10 11 12 14 13 12 14 19 23 24 23 24 23
10 10 7 7 7 6 5 4 7 9 5 3 5 7 7 5 3 1 4 6 6 2 3 7 5 3 3 1 2 4 6 4 3 4 5 5 4 4 5 3 4 6 6 6 5 2 3 6 5 4 6 8 7 7 9 9 9 10 8 7 6 4 4 4 3 4 3 3 3 2 2 1 2 3 5 9 11 12 14 13 11 13 18 22 23 23 25 24
11 10 5 8 7 6 5 5 8 7 4 4 7 7 3 5 7 2 3 3 4 1 1 5 5 5 7 4 1 3 3 3 4 1 3 5 4 3 6 7 8 7 3 6 6 5 5 6 5 5 6 8 8 9 11 11 10 10 8 7 7 5 5 5 5 6 5 5 4 2 3 2 2 2 3 5 6 8 10 9 10 15 20 23 24 23 25 26
11 8 3 8 8 6 7 8 6 5 5 4 6 6 1 3 9 5 1 3 3 2 2 3 4 5 7 7 5 1 1 4 2 2 1 3 3 1 5 9 8 8 5 5 8 10 7 3 5 6 4 6 8 12 13 14 14 12 10 9 8 7 6 5 5 5 5 5 3 2 2 1 3 2 2 3 3 6 9 7 9 15 20 22 23 23 25 26
12 7 4 7 8 8 9 8 3 5 6 2 3 5 2 4 9 6 4 3 5 5 2 3 3 4 5 5 5 1 2 1 3 3 1 4 1 5 2 3 5 3 4 3 5 7 5 2 6 8 6 10 10 12 14 12 14 11 10 10 9 8 8 6 5 4 4 5 2 3 1 1 3 3 3 4 7 13 14 10 13 13 15 20 21 23 26 25
13 10 4 8 9 10 10 6 1 4 7 4 4 4 3 4 8 9 8 5 5 6 5 3 2 2 4 4 3 4 2 1 1 1 2 4 3 5 1 4 4 6 3 4 4 4 3 4 5 5 5 8 8 8 10 10 10 8 8 10 10 11 11 8 6 4 3 6 3 2 2 1 3 4 2 6 8 10 10 12 14 10 10 16 16 17 21 22
13 10 5 8 9 11 12 7 3 5 5 4 5 4 3 3 1 5 8 4 4 6 6 4 3 2 4 3 2 6 4 0 2 1 3 5 5 3 3 5 6 5 6 14 9 6 5 4 4 5 6 5 3 3 4 6 8 7 10 12 12 12 13 9 6 5 5 6 4 1 4 5 1 4 2 5 7 5 6 6 8 7 7 13 14 13 18 21
9 7 6 8 9 12 14 11 9 7 4 3 4 2 4 4 3 3 5 3 2 6 5 3 3 2 3 2 2 4 2 1 2 1 3 4 3 3 4 6 8 2 11 13 6 3 6 5 5 7 7 6 4 5 8 8 7 9 11 12 10 10 12 10 8 6 5 4 0 4 7 11 8 5 3 3 4 1 2 4 5 5 7 12 14 16 22 23
8 5 3 4 5 9 11 11 10 7 2 1 2 1 3 5 1 3 2 3 2 5 4 3 4 4 2 3 3 3 2 3 2 2 3 4 3 5 6 6 9 1 6 6 1 0 5 6 7 10 10 12 11 10 14 14 8 7 9 11 12 13 12 10 9 8 4 4 2 3 9 12 12 11 9 7 4 2 2 4 4 5 8 12 13 14 20 21
9 4 2 4 5 4 5 7 9 7 4 1 0 1 3 4 1 1 2 2 2 3 3 3 4 4 3 3 3 1 2 4 2 4 5 2 2 3 6 5 8 8 3 6 2 2 5 5 7 11 12 13 13 12 15 13 9 10 12 13 15 14 12 10 12 12 8 3 7 9 11 11 10 12 13 12 12 10 8 9 8 7 8 11 13 12 15 18
9 7 5 6 5 4 6 7 7 8 5 1 1 3 4 3 2 2 2 1 3 4 3 3 3 4 4 2 2 1 1 3 2 1 4 5 5 3 1 4 7 10 7 7 5 5 1 4 7 10 12 13 13 14 15 12 11 13 15 13 14 14 15 14 11 11 9 5 15 15 13 11 9 10 12 14 16 14 13 14 14 12 10 12 14 13 12 14
8 7 7 9 8 6 9 9 7 5 3 1 1 4 4 2 2 2 1 2 4 3 3 3 2 5 6 4 1 0 1 1 2 1 2 3 4 4 4 5 3 3 4 6 1 5 3 4 6 8 10 11 12 13 14 14 14 14 16 13 6 9 15 12 7 7 8 5 18 18 13 11 9 11 15 16 17 14 11 12 12 11 10 12 14 14 12 12
9 7 5 8 6 5 9 10 6 4 3 3 3 3 2 1 2 2 1 3 6 3 2 4 2 3 6 5 2 0 1 1 4 4 4 4 5 4 3 3 3 4 7 7 4 3 1 4 5 6 8 7 9 13 14 15 14 13 13 10 11 7 4 4 6 9 12 3 14 16 10 8 9 13 17 17 16 14 12 12 10 9 9 11 14 15 13 13
11 8 6 8 6 5 8 7 4 4 2 2 2 1 1 2 2 1 1 2 5 2 2 5 4 3 5 6 4 3 6 5 1 3 5 5 7 6 6 6 5 5 5 5 4 2 3 5 4 5 5 6 9 11 11 12 11 8 5 10 14 11 10 12 12 14 18 11 8 9 6 9 11 13 14 13 13 13 13 13 12 10 11 12 14 15 13 12
Wind_Direction
360 357 357 358 359 359 358 358 355 352 347 341 335 330 327 326 328 331 334 333 331 328 322 319 316 313 312 310 308 308 307 298 292 278 267 255 231 226 228 238 243 243 248 246 215 207 221 229 233 236 234 239 238 244 254 247 250 266 301 277 287 321 105 196 211 197 186 160 156 149 180 179 138 149 150 138 135 139 136 125 134 132 128 130 130 135 137 137
358 353 351 351 351 351 351 352 352 351 348 345 338 332 328 323 324 326 328 328 329 331 327 322 316 313 313 311 314 313 307 301 289 273 268 251 229 235 230 232 236 231 236 228 207 210 220 224 227 228 229 240 235 233 245 235 242 266 280 282 297 321 303 219 208 183 191 159 146 153 189 191 146 145 150 145 145 149 141 135 136 126 123 128 132 137 137 139
358 352 348 345 345 344 344 345 347 348 347 344 340 336 331 325 323 322 323 322 325 330 330 328 322 316 313 315 317 312 311 306 291 280 275 239 228 233 226 228 228 224 230 218 209 216 223 229 228 225 229 239 238 230 226 205 190 96 275 298 316 320 320 261 194 163 171 153 141 155 182 184 153 145 154 149 146 151 143 139 134 126 130 135 138 139 139 142
355 352 346 341 340 339 339 341 343 345 345 343 341 338 334 330 324 321 319 320 322 327 333 334 328 321 316 317 314 314 317 306 287 266 260 242 231 226 221 225 219 219 215 190 209 226 230 240 239 231 234 239 237 235 241 226 168 178 274 343 328 327 13 7 153 149 159 150 141 157 171 164 153 150 153 149 143 146 141 138 136 135 139 140 141 142 143 143
351 350 345 339 336 335 337 338 340 343 343 342 341 339 336 333 327 323 319 320 322 326 334 333 331 324 315 313 309 317 317 310 82 174 266 283 257 225 216 219 213 212 190 177 215 234 230 239 243 235 238 246 240 234 249 246 187 147 55 51 7 7 66 97 129 147 150 133 143 160 159 147 148 151 151 153 145 139 139 137 140 141 142 143 144 144 144 145
345 346 344 339 332 331 333 335 339 341 342 342 341 339 337 334 330 326 321 322 322 324 331 329 333 324 314 308 304 312 291 297 44 241 280 305 271 227 208 209 205 197 176 186 225 232 226 234 240 233 232 241 244 243 248 246 225 148 83 80 74 78 98 118 128 139 130 127 182 165 145 141 141 143 146 147 137 141 140 136 141 142 143 144 143 145 146 147
338 340 340 339 332 329 329 331 336 339 342 342 339 337 335 334 332 330 325 321 321 323 328 326 330 322 313 299 296 292 256 273 296 237 291 319 271 210 199 200 196 188 176 200 228 224 222 231 232 230 234 236 235 242 244 243 239 210 99 95 100 101 103 118 116 97 98 139 191 156 139 142 141 139 138 133 133 142 140 137 141 141 143 144 144 147 147 148
335 334 337 337 333 328 326 329 333 337 341 339 336 333 331 332 331 332 330 321 320 320 323 324 327 322 305 290 295 279 252 258 259 239 294 322 261 192 192 194 192 184 179 205 224 220 221 229 231 231 235 237 229 236 248 247 242 183 108 112 120 116 104 109 96 78 51 43 43 150 143 136 137 138 136 133 129 135 138 138 141 142 145 146 146 148 148 152
341 331 332 334 332 327 324 326 330 334 337 335 333 329 327 328 328 335 335 328 321 315 323 321 321 315 292 291 296 279 253 228 10 286 291 310 249 193 191 193 192 183 184 209 222 223 224 227 232 233 241 258 258 228 238 260 262 66 100 116 115 120 117 107 92 86 78 67 39 189 130 129 141 138 132 130 126 132 139 140 142 145 147 148 148 148 150 153
347 335 328 330 330 326 322 322 328 333 334 332 329 326 324 324 329 337 341 343 327 312 320 318 319 307 289 297 289 272 214 82 339 316 298 295 237 201 193 191 191 186 193 215 222 223 226 229 233 239 253 281 295 235 226 248 176 103 108 109 113 125 122 107 106 112 101 101 143 152 109 146 146 138 129 131 133 138 141 141 144 148 149 150 148 149 153 152
349 341 328 325 327 326 322 321 326 330 331 331 328 325 324 327 336 342 346 352 329 314 316 321 322 296 286 281 268 263 6 294 299 305 286 276 221 208 191 184 193 196 204 218 221 222 227 234 243 249 246 270 291 251 226 214 127 120 119 112 120 135 130 115 125 138 114 117 168 159 161 168 141 137 143 138 139 143 145 145 148 151 149 150 148 150 155 150
349 345 332 324 325 325 323 322 327 331 332 332 332 332 333 340 351 353 353 355 339 321 306 316 316 294 298 275 256 252 280 292 281 228 238 225 204 208 189 186 200 204 213 220 221 222 228 239 248 254 250 242 261 245 222 211 147 122 126 114 115 129 131 123 120 123 118 148 167 153 149 155 118 141 146 141 144 148 150 149 150 152 150 150 149 152 154 150
348 345 336 325 324 325 324 326 329 333 334 335 341 348 355 6 13 5 0 1 356 319 299 309 308 297 294 279 258 243 254 259 252 213 202 198 192 202 197 196 206 210 221 226 224 222 228 243 248 255 266 267 254 182 244 221 155 126 135 123 116 120 130 164 124 111 104 135 166 185 141 138 144 152 152 147 153 156 154 153 153 152 152 152 151 153 154 153
346 343 338 327 323 325 324 328 332 336 338 342 354 7 18 24 18 15 19 23 43 317 296 291 308 300 271 273 268 253 254 236 230 211 192 194 189 197 201 202 213 215 222 231 234 228 226 240 250 260 268 271 265 230 222 222 157 138 140 142 165 143 148 193 164 134 126 147 196 227 145 142 149 156 158 154 162 162 155 156 156 154 155 154 154 158 155 156
345 342 337 329 323 323 323 329 334 336 341 347 1 9 16 19 15 28 43 36 56 2 322 316 329 304 264 264 250 265 264 217 210 203 188 193 192 194 199 205 215 213 219 232 239 231 224 235 242 252 255 253 257 237 214 216 185 170 166 180 195 153 149 178 171 166 154 158 215 238 125 136 153 160 159 162 167 162 159 161 158 157 158 155 159 161 155 158
344 341 336 329 323 321 322 329 333 336 341 348 354 353 355 360 3 25 42 30 25 308 297 3 346 313 284 276 232 264 265 207 199 191 187 196 197 198 200 202 207 208 216 226 235 226 217 232 234 241 247 239 237 232 227 222 202 208 211 204 180 150 157 172 177 184 162 146 191 237 137 134 161 165 162 169 167 163 168 166 161 162 160 159 164 162 156 162
343 342 336 328 320 320 321 328 333 333 334 331 329 329 325 323 314 274 252 281 284 283 271 254 318 289 262 263 253 237 223 198 182 180 185 192 196 196 191 192 197 201 210 216 227 223 212 224 230 234 244 245 231 222 227 222 208 212 222 207 174 166 170 168 178 185 166 156 174 188 162 145 158 169 172 176 168 170 177 169 166 166 163 163 166 163 160 166
343 342 336 327 319 318 320 327 330 325 321 308 307 309 307 302 295 276 251 261 279 275 276 248 243 277 248 237 254 228 203 179 171 184 185 183 191 188 182 189 193 191 200 210 220 223 211 214 224 227 230 231 228 223 222 219 209 202 229 229 165 166 181 170 174 174 168 176 180 168 162 157 162 173 179 180 173 180 182 173 171 168 164 167 168 164 163 167
343 342 337 326 314 315 318 324 322 314 308 296 301 307 303 292 272 265 251 249 249 247 285 217 207 280 325 207 233 182 171 165 173 188 181 179 184 182 185 192 191 188 196 200 202 210 207 207 218 223 225 221 217 222 228 222 198 190 218 232 123 146 199 186 178 168 168 182 183 173 166 164 173 183 186 182 179 189 187 176 176 171 167 171 170 166 165 169
342 342 337 321 312 312 310 316 307 300 302 298 312 312 304 296 258 229 223 229 237 251 288 244 211 249 284 190 148 125 143 165 190 195 183 185 178 178 188 190 192 195 204 202 191 201 208 213 217 218 226 227 223 227 240 246 223 199 211 199 172 192 197 185 173 166 173 184 187 182 172 168 172 187 230 154 144 203 202 181 180 177 172 175 172 166 169 170
341 340 333 318 308 303 301 307 290 287 296 297 317 305 296 333 346 336 307 254 242 242 260 256 229 247 268 241 133 153 182 186 198 199 186 186 179 178 183 188 196 195 207 212 197 197 212 223 220 219 226 234 235 227 238 249 233 219 223 188 184 197 170 162 158 168 185 194 193 184 173 174 171 171 229 114 119 215 227 194 184 182 178 179 173 167 170 168
340 338 331 317 300 296 296 294 276 277 286 287 307 290 287 339 352 328 322 297 262 228 232 249 245 255 261 256 179 187 208 200 195 194 186 185 185 183 176 187 206 194 201 216 202 193 211 228 228 223 224 236 243 227 229 240 224 217 240 190 106 124 124 106 133 165 187 193 188 182 173 174 168 162 176 160 168 204 236 253 213 189 183 182 173 167 171 169
338 337 330 314 295 290 286 289 274 265 275 284 292 286 290 320 336 324 315 299 285 229 222 235 233 240 228 226 236 209 210 204 192 186 184 192 196 192 182 189 210 202 199 212 208 203 206 220 231 230 225 232 240 231 230 239 224 215 242 204 114 151 151 108 144 154 176 247 187 162 162 170 169 169 171 188 195 194 218 259 263 213 190 183 176 170 173 172
337 335 328 312 291 286 286 291 271 259 273 288 287 284 292 308 321 329 319 293 284 226 222 232 219 229 219 217 222 213 219 213 194 182 181 200 201 193 199 198 207 212 205 210 213 218 221 217 224 231 230 228 235 233 228 234 235 233 246 221 134 153 168 143 146 132 111 290 287 131 139 205 199 185 185 213 200 180 209 216 244 236 197 183 180 174 175 174
334 331 325 305 286 284 282 290 287 284 278 280 296 299 290 304 317 327 324 294 275 199 198 207 213 227 211 205 207 210 220 215 203 183 177 203 204 186 206 204 207 219 207 211 217 221 228 219 216 224 224 222 232 234 226 224 231 254 250 198 151 153 151 135 139 132 122 251 209 153 153 196 199 193 186 200 202 180 201 203 217 230 198 186 185 177 177 176
331 328 320 296 279 272 276 297 300 282 265 262 290 308 292 312 326 327 313 284 262 166 160 180 203 204 188 195 195 208 223 209 196 180 177 206 215 204 216 199 204 231 217 211 219 228 236 224 216 221 215 219 233 237 235 227 214 254 272 143 140 147 142 137 143 146 152 222 178 169 188 188 190 200 186 180 194 186 189 202 205 217 202 192 189 182 179 177
327 324 313 288 269 253 267 287 257 257 282 296 316 328 325 320 322 322 297 272 221 164 146 154 184 181 189 193 185 198 225 177 172 170 179 203 216 222 234 205 195 227 231 218 214 221 233 231 220 212 208 216 228 225 228 231 221 244 309 108 131 143 139 141 151 158 165 159 150 180 206 210 189 196 183 175 185 185 190 203 198 203 208 196 190 188 183 180
323 318 304 284 264 256 267 278 264 262 293 339 346 318 321 318 312 302 278 303 66 165 151 137 143 169 195 186 194 198 118 156 171 158 183 203 209 217 229 231 222 218 223 227 223 201 214 239 230 199 201 218 220 224 226 225 224 228 154 119 141 155 149 147 156 174 174 169 183 192 200 223 193 175 173 179 189 192 193 200 194 193 208 200 191 192 187 182
319 309 295 278 261 268 274 271 272 270 282 315 321 314 318 311 303 289 272 296 250 181 146 140 155 205 212 182 204 210 163 191 199 152 185 200 207 221 231 240 243 229 221 228 235 212 205 233 233 194 200 223 223 233 232 223 219 206 114 158 182 185 172 159 164 183 184 197 226 190 184 202 173 161 175 189 200 198 188 195 194 188 203 206 195 193 188 183
312 302 288 269 257 268 269 264 290 310 303 303 307 314 309 292 283 277 273 292 187 152 141 168 163 197 209 179 199 216 196 198 194 167 186 192 204 229 246 251 255 245 223 215 228 241 223 203 199 207 214 219 229 239 240 239 235 205 137 246 236 223 227 204 189 194 198 226 231 188 183 200 213 177 186 195 196 187 176 181 190 187 196 205 200 194 189 184
306 292 269 256 251 254 260 265 320 338 319 305 309 309 294 280 275 274 264 42 269 149 158 193 165 173 198 193 188 208 216 194 169 178 187 187 200 217 234 246 255 244 225 210 221 241 236 188 171 211 223 227 236 235 231 240 242 228 198 273 260 228 230 237 215 216 229 249 249 192 180 195 212 193 198 201 183 176 176 175 182 186 188 196 203 198 189 186
297 275 256 248 244 242 258 267 267 305 307 309 310 299 286 286 275 259 231 113 216 201 184 177 160 168 190 200 187 190 209 176 164 198 194 190 200 198 216 223 200 212 218 209 213 224 231 210 189 197 220 243 246 227 221 233 228 223 216 243 253 227 213 231 216 221 229 233 32 110 143 185 224 239 205 195 177 175 179 177 179 180 178 188 207 204 191 187
279 256 242 230 236 235 259 273 255 281 307 312 300 290 284 292 275 258 281 63 116 282 280 167 150 177 185 191 192 193 204 171 172 210 204 200 206 191 210 221 211 216 220 208 209 200 210 213 194 187 206 236 246 231 217 225 200 195 218 234 244 229 221 233 220 231 243 64 55 95 131 178 211 229 203 185 174 172 169 172 179 177 175 186 201 204 193 187
256 246 235 229 245 248 268 280 279 291 307 302 288 289 291 282 285 314 344 45 104 210 277 69 134 169 179 207 213 205 213 173 169 204 207 204 213 194 201 221 224 229 231 217 217 206 208 207 189 195 201 209 233 243 245 259 217 191 215 237 239 228 234 252 229 228 246 39 11 50 187 227 198 146 223 164 166 165 158 169 186 188 187 190 195 200 197 188
241 242 238 251 267 271 278 288 290 292 294 282 282 321 297 284 349 357 359 40 21 194 117 29 282 157 160 230 231 221 237 192 180 207 216 211 218 203 192 207 218 227 229 215 227 224 220 214 188 197 207 196 215 238 251 273 253 189 192 229 237 218 212 250 272 283 199 177 264 235 204 255 120 59 72 144 156 161 158 168 187 196 200 197 195 200 203 192
246 258 248 272 284 270 289 298 285 281 271 267 275 302 263 270 338 343 359 352 313 346 87 179 236 151 181 193 200 204 198 217 213 206 218 226 229 223 206 195 196 211 221 207 225 235 228 229 188 181 198 196 202 228 240 257 263 174 179 219 227 215 209 232 281 298 241 207 207 226 179 136 133 92 116 146 154 164 169 169 176 187 194 197 200 202 203 195
220 255 260 272 251 221 252 286 258 243 253 258 276 276 261 275 311 320 351 305 302 327 349 215 151 193 222 177 182 188 173 191 211 199 214 217 222 240 230 205 194 207 215 205 236 257 259 271 193 170 187 188 189 221 234 241 260 251 191 218 218 215 222 231 261 284 256 242 1 277 225 169 165 113 140 164 166 170 178 171 165 176 184 190 200 202 198 195
210 245 262 256 207 192 216 236 221 234 251 259 278 279 273 285 313 341 352 313 307 323 321 349 115 222 229 189 183 185 178 178 176 187 212 189 196 253 246 227 219 225 222 193 207 277 281 290 205 168 171 168 175 211 230 234 249 258 284 301 254 226 214 207 211 250 258 228 154 235 221 173 163 150 166 183 182 176 179 171 167 182 184 186 196 198 195 194
225 249 256 217 170 190 217 216 221 240 252 266 295 292 284 294 351 9 357 324 324 347 345 337 317 240 242 216 125 183 206 192 164 185 196 160 169 217 226 228 233 241 234 200 199 250 283 288 247 167 166 175 178 199 220 220 233 246 265 281 270 259 229 205 222 250 252 226 178 166 169 167 157 165 178 190 193 185 182 179 182 194 190 185 189 193 194 193
239 252 238 172 167 202 217 215 228 236 234 238 260 263 271 296 304 4 17 340 318 348 355 333 335 326 303 333 123 208 217 203 203 196 170 154 160 192 214 239 235 246 278 254 232 262 265 264 262 168 185 222 207 195 217 216 210 223 236 241 240 233 204 202 240 252 247 257 241 154 143 197 124 134 178 189 193 192 189 183 176 191 196 188 187 190 192 190
261 258 210 165 184 207 218 226 228 240 249 240 256 260 274 316 299 286 78 308 282 157 210 325 343 320 310 320 256 227 216 224 228 175 120 161 177 211 207 210 210 198 241 280 243 234 246 245 241 190 188 231 220 191 212 227 218 212 216 228 237 228 211 210 230 241 239 259 272 117 140 197 125 131 173 171 191 196 188 176 160 177 194 193 189 190 186 186
261 259 172 166 191 200 222 235 232 255 258 228 266 291 344 286 285 302 44 278 314 78 205 298 351 333 324 330 333 1 216 255 215 113 46 194 195 278 197 208 219 195 205 244 211 219 248 272 271 252 235 264 235 189 200 227 232 224 218 223 229 231 234 229 230 243 246 259 279 103 137 144 99 124 146 121 90 85 90 106 148 171 187 191 192 190 183 184
243 235 170 179 202 210 230 250 256 267 270 253 276 277 244 272 295 335 19 344 351 3 329 324 348 352 342 320 321 324 202 300 34 79 204 211 134 44 74 245 291 271 264 266 199 221 255 257 273 279 292 294 260 194 184 214 235 236 224 220 227 233 235 230 234 254 269 271 272 109 129 17 45 36 58 78 72 81 95 137 172 177 186 188 187 187 185 187
266 268 224 193 207 217 230 248 220 251 268 275 283 269 231 285 325 344 356 14 1 337 343 345 336 6 336 301 306 301 259 151 1 335 214 207 122 73 129 244 255 245 270 14 17 325 295 219 235 268 273 276 254 195 175 193 223 244 239 223 223 231 236 231 217 216 256 275 281 97 137 166 6 350 40 86 84 102 129 168 183 185 188 184 182 184 182 184
287 285 236 196 205 221 235 253 264 263 260 253 285 303 261 245 17 336 318 347 4 329 337 344 341 341 306 307 309 295 301 262 252 235 176 184 139 128 226 227 218 231 16 26 15 328 298 253 220 230 243 252 235 204 210 204 200 222 246 238 222 218 231 242 229 201 211 241 262 62 137 141 90 294 272 85 88 125 142 158 187 195 180 177 183 187 179 175
280 271 223 192 194 217 236 253 264 271 278 262 267 275 278 280 104 97 306 339 359 319 328 337 323 305 289 311 276 263 282 250 247 191 177 183 153 177 205 227 233 272 22 14 6 305 296 298 265 250 258 274 296 326 311 283 212 198 228 246 246 231 223 232 247 238 204 193 347 51 117 136 146 187 209 90 82 142 156 139 174 189 170 171 179 184 182 176
264 281 250 215 207 218 230 238 248 259 272 303 279 176 260 285 90 98 335 347 328 312 344 353 319 313 330 336 299 277 284 259 260 320 250 202 197 186 169 235 253 84 27 323 322 217 275 280 274 273 273 276 290 308 297 283 254 224 230 231 247 256 238 223 240 254 225 164 133 99 125 137 148 155 156 151 149 207 205 146 152 184 176 171 172 175 181 182
253 280 279 259 246 237 246 242 245 253 240 208 318 214 250 274 310 345 308 321 318 323 9 355 313 309 325 331 319 322 301 282 303 336 312 296 268 191 155 222 225 149 152 264 211 179 273 276 269 271 269 267 272 270 270 276 273 267 261 230 224 247 256 240 236 245 251 176 146 152 140 132 144 149 146 155 165 172 166 149 159 184 171 164 169 170 176 182
269 289 296 292 273 271 300 279 250 250 249 250 286 257 263 274 276 285 277 298 340 357 357 333 318 333 354 7 335 12 347 277 263 335 317 319 323 317 240 247 209 165 181 239 199 155 262 289 280 285 281 272 262 248 247 259 258 263 271 247 216 221 239 244 240 244 250 149 130 135 127 113 127 143 137 141 147 147 143 146 162 175 162 156 162 161 165 175
295 311 317 311 294 282 292 277 246 241 231 150 259 261 273 290 275 264 244 301 334 354 325 310 326 352 7 36 62 90 100 234 247 277 275 270 292 298 292 297 281 234 280 296 276 114 116 281 291 294 283 274 268 252 237 238 246 258 273 275 252 225 231 240 256 271 273 167 130 124 114 110 122 130 123 122 129 133 134 138 148 158 156 151 148 147 154 163
318 315 299 295 289 286 286 270 245 244 223 170 209 242 239 242 260 243 178 338 333 327 326 331 341 5 1 7 28 26 11 179 199 228 256 247 237 242 258 296 315 298 298 309 343 76 168 277 285 272 266 269 274 264 247 241 242 245 263 312 358 348 304 339 8 1 349 31 128 124 118 125 131 127 123 124 131 136 134 129 130 137 138 134 130 130 134 138
340 323 288 274 264 256 271 269 244 241 249 168 167 219 248 205 215 212 157 317 304 301 356 335 334 40 7 340 1 17 339 338 308 265 284 266 241 230 226 235 248 261 274 298 322 319 269 273 277 275 279 274 273 280 276 261 245 233 277 350 5 3 8 15 21 20 9 17 110 124 115 124 131 130 130 134 136 135 135 132 128 117 104 106 114 114 112 116